Вернуться в каталог

COSMOS 1818 COOLANT

LostLEO
NORAD 34176·DEBRIS·🇷🇺 Russia

Запущен Feb 1, 1987 с Baikonur Cosmodrome

Loading…

Ближайшие Пролёты (ближайшие 24 часа)

TLE

УстаревшееSource: Space-Track

Эпоха: Oct 8, 2022, 22:25 UTC

1 34176U 87011G   22281.93434321  .00001085  00000-0  41910-3 0  9994
2 34176  65.0170  26.2946 0014345 257.6295 216.5603 14.34495084735239

Отслеживайте COSMOS 1818 COOLANT в реальном времени с AllMySat

Download on the App Store